Weather in Mansura

Egypt     31°02′19″N   31°22′34″E
temp.,
°C
wind,
m/s
gust,
m/s
humid.,
%
clouds,
%
prec.,
mm/h
press.,
hPa
HPBL,
m
18 may, tue
tue1823:00+18nnw24810 0.0 101492
02:00+17nnw22850 0.0 101414
05:00+17n11880 0.0 101411
08:00+24nne34510 0.0 1015790
11:00+31nne44240 0.0 10141516
14:00+33nne65190 0.0 10121684
17:00+28nne66300 0.0 10131010
20:00+21nne36610 0.0 1014152
19 may, wed
wed1923:00+20nne23750 0.0 101443
02:00+19nne22810 0.0 101314
05:00+18nne22840 0.0 101316
08:00+26ne34450 0.0 1014735
11:00+33ne55220 0.0 10131404
14:00+35ne76190 0.0 10111542
17:00+30nne67280 0.0 1011887
20:00+22nne37620 0.0 1012191
20 may, thu
thu2023:00+20nne35810 0.0 1012111
02:00+19n34850 0.0 101170
05:00+18nne22880 0.0 101112
08:00+28nnw56360 0.0 1011610
11:00+34nne66170 0.0 10101442
14:00+35n76150 0.0 10091558
17:00+31n67230 0.0 1010981
20:00+22n36510 0.0 1011132
21 may, fri
fri2123:00+20nnw22690 0.0 101236
02:00+19nnw22750 0.0 101125
05:00+18nnw22770 0.0 101111
08:00+27nw33350 0.0 1011528
11:00+35nnw33140 0.0 10101540
14:00+38n65125 0.0 10082562
17:00+32nnw77220 0.0 10091038
20:00+23n35520 0.0 101092
22 may, sat
sat2223:00+21ne11710 0.0 101111
02:00+19nw37790 0.0 1011161
05:00+19nw398359 0.0 1012314
08:00+25nw56490 0.0 1013894
11:00+29nw66330 0.0 10121636
14:00+29nnw88290 0.0 10121972
17:00+25nw78370 0.0 10131200
20:00+20nnw59610 0.0 1015458